Voltar ao catálogo

COSMOS 1823 DEB

AtivoLEO
NORAD 29357·DEBRIS·🇷🇺 Russia

Lançado Feb 20, 1987 de Plesetsk Cosmodrome

Loading…

Próximas Passagens (próximas 24 horas)

TLE

EnvelhecendoSource: Space-Track

Época: Sep 9, 2026, 15:07 UTC

1 29357U 87020DY  26252.63038404 -.00000025  00000-0 -25370-4 0  9998
2 29357  73.7940 349.5569 0220505  16.0837  47.4684 12.85532028613119

Acompanhe COSMOS 1823 DEB em tempo real com AllMySat

Download on the App Store